(°C)
16°
16°
16°
15°
13°
12°
11°
(°C)
12°
11°
11°
10°
KÉK
KÉK
KÉK
ÉK
KÉK
ÉK
ÉK
(km/h)
20-22
20-22
18-21
16-19
16-21
16-20
15-20
(mm)
0
0
0
0
0
0
0
(%)
0
0
0
0
0
0
0

Napfelkelte

/ 36.6°
sun-icon
UV 1
07:55
18:45
Hold (fogyó félhold) (233°)
21:39
12:27

METAR Ioánnina (LGIO)-ért

Idő Feltételek Hőmérséklet/
Harmatpont
Szél Látási viszonyok Időjárás Felhők Légnyomás Módosítás Nyers
VFR 16°C / 5°C 40º 11kt >10km - Few Clouds 3000ft 1023 - LGIO 251050Z 04011KT 9999 FEW030 16/05 Q1023
VFR 16°C / 5°C 30º 12kt >10km - Few Clouds 3000ft 1023 - LGIO 251020Z 03012KT 9999 FEW030 16/05 Q1023
VFR 16°C / 5°C 40º 12kt >10km - Few Clouds 3000ft 1023 - LGIO 250950Z 04012KT 9999 FEW030 16/05 Q1023
VFR 16°C / 5°C 50º 13kt >10km - Few Clouds 3000ft 1023 - LGIO 250920Z 05013KT 9999 FEW030 16/05 Q1023
VFR 16°C / 6°C 40º 12kt >10km - Few Clouds 3000ft 1023 - LGIO 250850Z 04012KT 9999 FEW030 16/06 Q1023
VFR 16°C / 6°C 50º 6kt Gust 16kt >10km - Few Clouds 3000ft 1023 - LGIO 250820Z 05006G16KT 9999 FEW030 16/06 Q1023
VFR 15°C / 5°C 50º 9kt >10km - Few Clouds 3000ft 1023 - LGIO 250750Z 05009KT 9999 FEW030 15/05 Q1023
VFR 15°C / 5°C 60º 10kt >10km - Few Clouds 3000ft 1023 - LGIO 250720Z 06010KT 9999 FEW030 15/05 Q1023
VFR 15°C / 5°C 70º 6kt >10km - Few Clouds 3000ft 1023 - LGIO 250650Z 07006KT 9999 FEW030 15/05 Q1023
VFR 14°C / 5°C 60º 7kt >10km - Few Clouds 3000ft 1023 - LGIO 250620Z 06007KT 9999 FEW030 14/05 Q1023
VFR 14°C / 6°C 70º 7kt Gust 17kt >10km - Few Clouds 3000ft 1023 - LGIO 250550Z 07007G17KT 9999 FEW030 14/06 Q1023
13°C / 5°C 90º variable 270º to 240º 5kt - 1023 - LGIO 250520Z AUTO 09005KT 270V240 //// // ////// 13/05 Q1023 RE//
11°C / 6°C variable 2kt - 1023 - LGIO 250450Z AUTO VRB02KT //// // ////// 11/06 Q1023 RE//
11°C / 6°C variable 2kt - 1023 - LGIO 250420Z AUTO VRB02KT //// // ////// 11/06 Q1023 RE//
12°C / 7°C 230º variable 200º to 270º 4kt - 1023 - LGIO 250350Z AUTO 23004KT 200V270 //// // ////// 12/07 Q1023 RE//
11°C / 7°C variable 3kt - 1022 - LGIO 250320Z AUTO VRB03KT //// // ////// 11/07 Q1022 RE//
11°C / 8°C 180º variable 170º to 280º 4kt - 1022 - LGIO 250250Z AUTO 18004KT 170V280 //// // ////// 11/08 Q1022 RE//
12°C / 8°C 30º 4kt - 1022 - LGIO 250220Z AUTO 03004KT //// // ////// 12/08 Q1022 RE//
11°C / 9°C variable 3kt - 1023 - LGIO 250150Z AUTO VRB03KT //// // ////// 11/09 Q1023 RE//
12°C / 9°C 250º variable 220º to 280º 5kt - 1023 - LGIO 250120Z AUTO 25005KT 220V280 //// // ////// 12/09 Q1023 RE//
12°C / 9°C variable 3kt - 1023 - LGIO 250050Z AUTO VRB03KT //// // ////// 12/09 Q1023 RE//
12°C / 9°C variable 2kt - 1023 - LGIO 250020Z AUTO VRB02KT //// // ////// 12/09 Q1023 RE//
12°C / 10°C variable 1kt - 1023 - LGIO 242350Z AUTO VRB01KT //// // ////// 12/10 Q1023 RE//
11°C / 10°C variable 1kt - 1023 - LGIO 242320Z AUTO VRB01KT //// // ////// 11/10 Q1023 RE//

VFR

16°C / 5°C

[Több]
Szél 40º 11kt
Látási viszonyok >10km
Időjárás -
Felhők Few Clouds 3000ft
Légnyomás 1023
Módosítás -
Nyers LGIO 251050Z 04011KT 9999 FEW030 16/05 Q1023

VFR

16°C / 5°C

[Több]
Szél 30º 12kt
Látási viszonyok >10km
Időjárás -
Felhők Few Clouds 3000ft
Légnyomás 1023
Módosítás -
Nyers LGIO 251020Z 03012KT 9999 FEW030 16/05 Q1023

VFR

16°C / 5°C

[Több]
Szél 40º 12kt
Látási viszonyok >10km
Időjárás -
Felhők Few Clouds 3000ft
Légnyomás 1023
Módosítás -
Nyers LGIO 250950Z 04012KT 9999 FEW030 16/05 Q1023

VFR

16°C / 5°C

[Több]
Szél 50º 13kt
Látási viszonyok >10km
Időjárás -
Felhők Few Clouds 3000ft
Légnyomás 1023
Módosítás -
Nyers LGIO 250920Z 05013KT 9999 FEW030 16/05 Q1023

VFR

16°C / 6°C

[Több]
Szél 40º 12kt
Látási viszonyok >10km
Időjárás -
Felhők Few Clouds 3000ft
Légnyomás 1023
Módosítás -
Nyers LGIO 250850Z 04012KT 9999 FEW030 16/06 Q1023

VFR

16°C / 6°C

[Több]
Szél 50º 6kt Gust 16kt
Látási viszonyok >10km
Időjárás -
Felhők Few Clouds 3000ft
Légnyomás 1023
Módosítás -
Nyers LGIO 250820Z 05006G16KT 9999 FEW030 16/06 Q1023

VFR

15°C / 5°C

[Több]
Szél 50º 9kt
Látási viszonyok >10km
Időjárás -
Felhők Few Clouds 3000ft
Légnyomás 1023
Módosítás -
Nyers LGIO 250750Z 05009KT 9999 FEW030 15/05 Q1023

VFR

15°C / 5°C

[Több]
Szél 60º 10kt
Látási viszonyok >10km
Időjárás -
Felhők Few Clouds 3000ft
Légnyomás 1023
Módosítás -
Nyers LGIO 250720Z 06010KT 9999 FEW030 15/05 Q1023

VFR

15°C / 5°C

[Több]
Szél 70º 6kt
Látási viszonyok >10km
Időjárás -
Felhők Few Clouds 3000ft
Légnyomás 1023
Módosítás -
Nyers LGIO 250650Z 07006KT 9999 FEW030 15/05 Q1023

VFR

14°C / 5°C

[Több]
Szél 60º 7kt
Látási viszonyok >10km
Időjárás -
Felhők Few Clouds 3000ft
Légnyomás 1023
Módosítás -
Nyers LGIO 250620Z 06007KT 9999 FEW030 14/05 Q1023

VFR

14°C / 6°C

[Több]
Szél 70º 7kt Gust 17kt
Látási viszonyok >10km
Időjárás -
Felhők Few Clouds 3000ft
Légnyomás 1023
Módosítás -
Nyers LGIO 250550Z 07007G17KT 9999 FEW030 14/06 Q1023

13°C / 5°C

[Több]
Szél 90º variable 270º to 240º 5kt
Látási viszonyok
Időjárás -
Felhők
Légnyomás 1023
Módosítás -
Nyers LGIO 250520Z AUTO 09005KT 270V240 //// // ////// 13/05 Q1023 RE//

11°C / 6°C

[Több]
Szél variable 2kt
Látási viszonyok
Időjárás -
Felhők
Légnyomás 1023
Módosítás -
Nyers LGIO 250450Z AUTO VRB02KT //// // ////// 11/06 Q1023 RE//

11°C / 6°C

[Több]
Szél variable 2kt
Látási viszonyok
Időjárás -
Felhők
Légnyomás 1023
Módosítás -
Nyers LGIO 250420Z AUTO VRB02KT //// // ////// 11/06 Q1023 RE//

12°C / 7°C

[Több]
Szél 230º variable 200º to 270º 4kt
Látási viszonyok
Időjárás -
Felhők
Légnyomás 1023
Módosítás -
Nyers LGIO 250350Z AUTO 23004KT 200V270 //// // ////// 12/07 Q1023 RE//

11°C / 7°C

[Több]
Szél variable 3kt
Látási viszonyok
Időjárás -
Felhők
Légnyomás 1022
Módosítás -
Nyers LGIO 250320Z AUTO VRB03KT //// // ////// 11/07 Q1022 RE//

11°C / 8°C

[Több]
Szél 180º variable 170º to 280º 4kt
Látási viszonyok
Időjárás -
Felhők
Légnyomás 1022
Módosítás -
Nyers LGIO 250250Z AUTO 18004KT 170V280 //// // ////// 11/08 Q1022 RE//

12°C / 8°C

[Több]
Szél 30º 4kt
Látási viszonyok
Időjárás -
Felhők
Légnyomás 1022
Módosítás -
Nyers LGIO 250220Z AUTO 03004KT //// // ////// 12/08 Q1022 RE//

11°C / 9°C

[Több]
Szél variable 3kt
Látási viszonyok
Időjárás -
Felhők
Légnyomás 1023
Módosítás -
Nyers LGIO 250150Z AUTO VRB03KT //// // ////// 11/09 Q1023 RE//

12°C / 9°C

[Több]
Szél 250º variable 220º to 280º 5kt
Látási viszonyok
Időjárás -
Felhők
Légnyomás 1023
Módosítás -
Nyers LGIO 250120Z AUTO 25005KT 220V280 //// // ////// 12/09 Q1023 RE//

12°C / 9°C

[Több]
Szél variable 3kt
Látási viszonyok
Időjárás -
Felhők
Légnyomás 1023
Módosítás -
Nyers LGIO 250050Z AUTO VRB03KT //// // ////// 12/09 Q1023 RE//

12°C / 9°C

[Több]
Szél variable 2kt
Látási viszonyok
Időjárás -
Felhők
Légnyomás 1023
Módosítás -
Nyers LGIO 250020Z AUTO VRB02KT //// // ////// 12/09 Q1023 RE//

12°C / 10°C

[Több]
Szél variable 1kt
Látási viszonyok
Időjárás -
Felhők
Légnyomás 1023
Módosítás -
Nyers LGIO 242350Z AUTO VRB01KT //// // ////// 12/10 Q1023 RE//

11°C / 10°C

[Több]
Szél variable 1kt
Látási viszonyok
Időjárás -
Felhők
Légnyomás 1023
Módosítás -
Nyers LGIO 242320Z AUTO VRB01KT //// // ////// 11/10 Q1023 RE//

TAF Ioánnina (LGIO)-ért

From till


From till Wind 60º 15kt. Visibility 10km or more. Few Clouds 2000ft. Scattered Clouds 3000ft.
Becoming from till Wind 60º 15kt. Visibility 10km or more. Few Clouds 2500ft.

Nyers: TAF LGIO 251100Z 2512/2521 06015KT 9999 FEW020 SCT030 BECMG 2512/2514 FEW025

Aktuális műholdas és esőképek ezen a helyen: Ioánnina, Görögország

A helyszín jelölő a következő helyen van elhelyezve: Ioánnina. [Több]

A valós idejű műholdas kép ötvözi a nappali látható fényt az éjszakai infravörös sugárzással. Éjjel a kép nem sötét, mivel az infravörös sugárzás képes érzékelni a hőmérséklet-különbségeket. Sajnos az alacsony felhőket és a ködöt nehéz megkülönböztetni a talaj hőmérsékletétől, így az éjszaka folyamán szinte láthatatlanok lehetnek. A Meteosat európai műholdképei valós időben frissülnek minden 5 percben. A GOES-16/GOES-17 (Észak- és Dél-Amerika) és Himawari (Ázsia) képei 10 percenként frissülnek.

A csapadékot radarok és műholdak segítségével határozzák meg. A műholdak által mért éjjeli csapadék becslése kevésbé pontos, mint a nappali. A narancssárga keresztek jelölik azokat a helyeket, ahol villámlás észlelhető (Európa felett).

Minden jog fenntartva 2021 EUMETSAT / meteoblue. nowcast által biztosított villámlással kapcsolatos adatok.

Radarkép és ultrarövid távú csapadék-előrejelzés a következő helyhez: Ioánnina

Szitáló eső
Enyhe
Mérsékelt
Erős
Nagyon nehéz
Jégeső

A helyzetjelző helye: Ioánnina. Ez az animáció bemutatja a csapadékradart az elmúlt órára vonatkozóan, valamint előrejelzést az elkövetkező 1 órára. A szitáló eső vagy enyhe hóesés láthatatlan lehet a radar számára. A csapadék intenzitása színkóddal van jelölve, a világoskéktől a narancssárgáig.